| time (UTC) | temp F | wind direction | speed MPH | gust MPH | rain 1hr in | rain 24hr in | rain mn in | humidity % | barometer mb |
| 20260508153523 | 71 | 189 | 1.0 | 4.0 | 0.00 | 0.00 | 0.00 | 42 | 1015.8 |
| 20260508153024 | 71 | 196 | 2.0 | 5.0 | 0.00 | 0.00 | 0.00 | 42 | 1015.8 |
| 20260508152523 | 71 | 5 | 1.0 | 6.0 | 0.00 | 0.00 | 0.00 | 42 | 1015.8 |
| 20260508152026 | 71 | 254 | 2.0 | 6.0 | 0.00 | 0.00 | 0.00 | 42 | 1015.8 |
| 20260508151522 | 71 | 287 | 3.0 | 8.0 | 0.00 | 0.00 | 0.00 | 43 | 1015.8 |
| 20260508151026 | 71 | 233 | 3.0 | 8.0 | 0.00 | 0.00 | 0.00 | 44 | 1016.0 |
| 20260508150521 | 72 | 228 | 1.0 | 4.0 | 0.00 | 0.00 | 0.00 | 45 | 1016.0 |
| 20260508150023 | 72 | 188 | 0.0 | 6.0 | 0.00 | 0.00 | 0.00 | 44 | 1015.9 |
| 20260508145520 | 72 | 345 | 3.0 | 6.0 | 0.00 | 0.00 | 0.00 | 44 | 1016.0 |
| 20260508145020 | 72 | 230 | 2.0 | 6.0 | 0.00 | 0.00 | 0.00 | 43 | 1016.1 |
| 20260508144535 | 72 | 293 | 0.0 | 6.0 | 0.00 | 0.00 | 0.00 | 43 | 1016.1 |
| 20260508144019 | 72 | 182 | 2.0 | 8.0 | 0.00 | 0.00 | 0.00 | 43 | 1016.1 |
| 20260508143521 | 72 | 194 | 3.0 | 8.0 | 0.00 | 0.00 | 0.00 | 44 | 1016.2 |
| 20260508143027 | 72 | 74 | 1.0 | 8.0 | 0.00 | 0.00 | 0.00 | 43 | 1016.3 |
| 20260508142518 | 73 | 330 | 1.0 | 6.0 | 0.00 | 0.00 | 0.00 | 43 | 1016.3 |
| 20260508142019 | 73 | 229 | 2.0 | 5.0 | 0.00 | 0.00 | 0.00 | 41 | 1016.3 |
| 20260508141523 | 73 | 192 | 1.0 | 5.0 | 0.00 | 0.00 | 0.00 | 40 | 1016.3 |
| 20260508141015 | 72 | 191 | 1.0 | 7.0 | 0.00 | 0.00 | 0.00 | 41 | 1016.3 |
| 20260508140515 | 72 | 183 | 2.0 | 7.0 | 0.00 | 0.00 | 0.00 | 41 | 1016.4 |
| 20260508140015 | 72 | 229 | 1.0 | 6.0 | 0.00 | 0.00 | 0.00 | 41 | 1016.4 |
| 20260508135515 | 72 | 190 | 1.0 | 6.0 | 0.00 | 0.00 | 0.00 | 42 | 1016.5 |
| 20260508135014 | 71 | 309 | 2.0 | 6.0 | 0.00 | 0.00 | 0.00 | 43 | 1016.6 |
| 20260508134514 | 72 | 212 | 2.0 | 6.0 | 0.00 | 0.00 | 0.00 | 39 | 1016.5 |
| 20260508134013 | 71 | 205 | 0.0 | 4.0 | 0.00 | 0.00 | 0.00 | 42 | 1016.4 |
| 20260508133513 | 71 | 270 | 2.0 | 6.0 | 0.00 | 0.00 | 0.00 | 42 | 1016.5 |
| 20260508133013 | 71 | 320 | 2.0 | 6.0 | 0.00 | 0.00 | 0.00 | 44 | 1016.5 |
| 20260508132512 | 72 | 314 | 1.0 | 6.0 | 0.00 | 0.00 | 0.00 | 46 | 1016.6 |
| 20260508132011 | 71 | 350 | 2.0 | 6.0 | 0.00 | 0.00 | 0.00 | 44 | 1016.6 |
| 20260508131510 | 71 | 267 | 1.0 | 8.0 | 0.00 | 0.00 | 0.00 | 47 | 1016.7 |
| 20260508131015 | 71 | 343 | 3.0 | 8.0 | 0.00 | 0.00 | 0.00 | 45 | 1016.7 |
| 20260508130508 | 71 | 341 | 1.0 | 6.0 | 0.00 | 0.00 | 0.00 | 50 | 1016.7 |
| 20260508130010 | 70 | 348 | 0.0 | 8.0 | 0.00 | 0.00 | 0.00 | 54 | 1016.8 |
| 20260508125507 | 70 | 213 | 2.0 | 9.0 | 0.00 | 0.00 | 0.00 | 49 | 1016.9 |
| 20260508125007 | 71 | 327 | 3.0 | 8.0 | 0.00 | 0.00 | 0.00 | 52 | 1016.9 |
| 20260508124506 | 70 | 223 | 1.0 | 5.0 | 0.00 | 0.00 | 0.00 | 52 | 1017.0 |
| 20260508124006 | 71 | 227 | 1.0 | 4.0 | 0.00 | 0.00 | 0.00 | 52 | 1017.0 |
| 20260508123505 | 71 | 289 | 1.0 | 6.0 | 0.00 | 0.00 | 0.00 | 53 | 1017.1 |
| 20260508123006 | 70 | 220 | 1.0 | 8.0 | 0.00 | 0.00 | 0.00 | 54 | 1017.1 |
| 20260508122504 | 69 | 246 | 1.0 | 8.0 | 0.00 | 0.00 | 0.00 | 57 | 1017.1 |
| 20260508122003 | 69 | 320 | 3.0 | 5.0 | 0.00 | 0.00 | 0.00 | 55 | 1017.1 |
| 20260508121504 | 69 | 333 | 1.0 | 9.0 | 0.00 | 0.00 | 0.00 | 57 | 1017.1 |
| 20260508121002 | 69 | 315 | 3.0 | 9.0 | 0.00 | 0.00 | 0.00 | 58 | 1017.1 |
| 20260508120502 | 70 | 233 | 2.0 | 9.0 | 0.00 | 0.00 | 0.00 | 58 | 1017.2 |
| 20260508120003 | 71 | 306 | 2.0 | 9.0 | 0.00 | 0.00 | 0.00 | 57 | 1017.2 |
| 20260508115601 | 70 | 330 | 1.0 | 4.0 | 0.00 | 0.00 | 0.00 | 58 | 1017.2 |
| 20260508115059 | 70 | 90 | 1.0 | 3.0 | 0.00 | 0.00 | 0.00 | 59 | 1017.3 |
| 20260508114603 | 69 | 350 | 0.0 | 6.0 | 0.00 | 0.00 | 0.00 | 63 | 1017.3 |
| 20260508114058 | 68 | 215 | 2.0 | 6.0 | 0.00 | 0.00 | 0.00 | 61 | 1017.4 |
| 20260508113557 | 68 | 60 | 1.0 | 8.0 | 0.00 | 0.00 | 0.00 | 63 | 1017.4 |
| 20260508113124 | 68 | 207 | 1.0 | 4.0 | 0.00 | 0.00 | 0.00 | 64 | 1017.5 |
| 20260508112556 | 68 | 343 | 1.0 | 5.0 | 0.00 | 0.00 | 0.00 | 63 | 1017.5 |
| 20260508112056 | 68 | 267 | 0.0 | 6.0 | 0.00 | 0.00 | 0.00 | 64 | 1017.5 |
| 20260508111556 | 68 | 217 | 1.0 | 6.0 | 0.00 | 0.00 | 0.00 | 63 | 1017.6 |
| 20260508111054 | 68 | 345 | 1.0 | 6.0 | 0.00 | 0.00 | 0.00 | 63 | 1017.6 |
| 20260508110553 | 67 | 201 | 1.0 | 8.0 | 0.00 | 0.00 | 0.00 | 65 | 1017.5 |
| 20260508110052 | 67 | 215 | 1.0 | 6.0 | 0.00 | 0.00 | 0.00 | 64 | 1017.6 |
| 20260508105552 | 67 | 233 | 2.0 | 6.0 | 0.00 | 0.00 | 0.00 | 64 | 1017.7 |
| 20260508105050 | 68 | 178 | 0.0 | 6.0 | 0.00 | 0.00 | 0.00 | 64 | 1017.8 |
| 20260508104556 | 68 | 304 | 0.0 | 3.0 | 0.00 | 0.00 | 0.00 | 64 | 1017.8 |
| 20260508104049 | 67 | 217 | 0.0 | 6.0 | 0.00 | 0.00 | 0.00 | 64 | 1017.8 |
| 20260508103549 | 67 | 226 | 2.0 | 7.0 | 0.00 | 0.00 | 0.00 | 66 | 1017.9 |
| 20260508103050 | 67 | 44 | 0.0 | 3.0 | 0.00 | 0.00 | 0.00 | 65 | 1017.8 |
| 20260508102547 | 67 | 44 | 1.0 | 3.0 | 0.00 | 0.00 | 0.00 | 65 | 1017.9 |
| 20260508102047 | 67 | 46 | 1.0 | 4.0 | 0.00 | 0.00 | 0.00 | 68 | 1018.1 |
| 20260508101549 | 66 | 173 | 2.0 | 4.0 | 0.00 | 0.00 | 0.00 | 65 | 1018.1 |
| 20260508101046 | 66 | 173 | 2.0 | 5.0 | 0.00 | 0.00 | 0.00 | 65 | 1018.1 |
| 20260508100544 | 67 | 170 | 0.0 | 5.0 | 0.00 | 0.00 | 0.00 | 64 | 1018.3 |
| 20260508100043 | 66 | 99 | 1.0 | 4.0 | 0.00 | 0.00 | 0.00 | 66 | 1018.1 |
| 20260508095543 | 66 | 262 | 0.0 | 3.0 | 0.00 | 0.00 | 0.00 | 65 | 1018.2 |
| 20260508095043 | 65 | 236 | 1.0 | 5.0 | 0.00 | 0.00 | 0.00 | 65 | 1018.2 |
| 20260508094541 | 65 | 164 | 1.0 | 7.0 | 0.00 | 0.00 | 0.00 | 65 | 1018.3 |
| 20260508094040 | 66 | 76 | 1.0 | 7.0 | 0.00 | 0.00 | 0.00 | 61 | 1018.4 |
| 20260508093539 | 66 | 69 | 1.0 | 5.0 | 0.00 | 0.00 | 0.00 | 64 | 1018.3 |
| 20260508093038 | 65 | 169 | 1.0 | 4.0 | 0.00 | 0.00 | 0.00 | 64 | 1018.3 |
| 20260508092536 | 65 | 153 | 0.0 | 4.0 | 0.00 | 0.00 | 0.00 | 64 | 1018.4 |
| 20260508092034 | 64 | 32 | 0.0 | 4.0 | 0.00 | 0.00 | 0.00 | 65 | 1018.4 |
| 20260508091534 | 64 | 87 | 1.0 | 4.0 | 0.00 | 0.00 | 0.00 | 65 | 1018.5 |
| 20260508091033 | 63 | 77 | 1.0 | 5.0 | 0.00 | 0.00 | 0.00 | 65 | 1018.6 |
| 20260508090531 | 63 | 117 | 1.0 | 4.0 | 0.00 | 0.00 | 0.00 | 67 | 1018.6 |
| 20260508090039 | 62 | 117 | 1.0 | 3.0 | 0.00 | 0.00 | 0.00 | 68 | 1018.7 |
| 20260508085529 | 61 | 24 | 0.0 | 3.0 | 0.00 | 0.00 | 0.00 | 70 | 1018.6 |
| 20260508085027 | 61 | 68 | 0.0 | 4.0 | 0.00 | 0.00 | 0.00 | 70 | 1018.7 |
| 20260508084527 | 60 | 70 | 1.0 | 4.0 | 0.00 | 0.00 | 0.00 | 71 | 1018.7 |
| 20260508084025 | 59 | 60 | 0.0 | 5.0 | 0.00 | 0.00 | 0.00 | 74 | 1018.7 |
| 20260508083523 | 59 | 30 | 2.0 | 4.0 | 0.00 | 0.00 | 0.00 | 75 | 1018.7 |
| 20260508083021 | 58 | 89 | 0.0 | 3.0 | 0.00 | 0.00 | 0.00 | 76 | 1018.7 |
| 20260508082524 | 58 | 84 | 0.0 | 4.0 | 0.00 | 0.00 | 0.00 | 77 | 1018.7 |
| 20260508082019 | 57 | 42 | 0.0 | 5.0 | 0.00 | 0.00 | 0.00 | 77 | 1018.7 |
| 20260508081518 | 57 | 51 | 0.0 | 5.0 | 0.00 | 0.00 | 0.00 | 78 | 1018.7 |
| 20260508081020 | 56 | 315 | 0.0 | 7.0 | 0.00 | 0.00 | 0.00 | 78 | 1018.6 |
| 20260508080514 | 56 | 139 | 2.0 | 7.0 | 0.00 | 0.00 | 0.00 | 80 | 1018.7 |
| 20260508080016 | 55 | 109 | 1.0 | 5.0 | 0.00 | 0.01 | 0.00 | 81 | 1018.6 |
| 20260508075512 | 55 | 142 | 0.0 | 0.0 | 0.00 | 0.01 | 0.00 | 83 | 1018.7 |
| 20260508075011 | 54 | 77 | 0.0 | 0.0 | 0.00 | 0.01 | 0.00 | 84 | 1018.7 |
| 20260508074515 | 54 | 71 | 0.0 | 0.0 | 0.00 | 0.01 | 0.00 | 85 | 1018.7 |
| 20260508074008 | 53 | 63 | 0.0 | 0.0 | 0.00 | 0.01 | 0.00 | 86 | 1018.7 |
| 20260508073509 | 53 | 337 | 0.0 | 0.0 | 0.00 | 0.01 | 0.00 | 86 | 1018.7 |
| 20260508073007 | 52 | 338 | 0.0 | 0.0 | 0.00 | 0.01 | 0.00 | 88 | 1018.8 |
| 20260508072504 | 52 | 236 | 0.0 | 0.0 | 0.00 | 0.01 | 0.00 | 89 | 1018.8 |
| 20260508072003 | 51 | 238 | 0.0 | 0.0 | 0.00 | 0.01 | 0.00 | 89 | 1018.9 |
| 20260508071503 | 51 | 246 | 0.0 | 0.0 | 0.00 | 0.01 | 0.00 | 90 | 1019.0 |
| 20260508071001 | 50 | 246 | 0.0 | 0.0 | 0.00 | 0.01 | 0.00 | 91 | 1019.1 |
| 20260508070601 | 50 | 246 | 0.0 | 0.0 | 0.00 | 0.01 | 0.00 | 91 | 1019.1 |
| 20260508065558 | 49 | 255 | 0.0 | 0.0 | 0.00 | 0.04 | 0.00 | 92 | 1019.1 |
| 20260508065058 | 49 | 255 | 0.0 | 0.0 | 0.00 | 0.04 | 0.00 | 92 | 1019.1 |
| 20260508064608 | 49 | 255 | 0.0 | 0.0 | 0.00 | 0.04 | 0.00 | 92 | 1019.1 |
| 20260508064100 | 48 | 255 | 0.0 | 0.0 | 0.00 | 0.04 | 0.00 | 92 | 1019.1 |
| 20260508063557 | 48 | 254 | 0.0 | 0.0 | 0.00 | 0.04 | 0.00 | 92 | 1019.0 |
| 20260508063056 | 48 | 254 | 0.0 | 0.0 | 0.00 | 0.04 | 0.00 | 93 | 1018.9 |
| 20260508062555 | 47 | 254 | 0.0 | 0.0 | 0.00 | 0.04 | 0.00 | 93 | 1018.9 |
| 20260508062055 | 47 | 254 | 0.0 | 0.0 | 0.00 | 0.04 | 0.00 | 93 | 1018.9 |
| 20260508061600 | 46 | 254 | 0.0 | 0.0 | 0.00 | 0.04 | 0.00 | 93 | 1018.9 |
| 20260508061054 | 46 | 254 | 0.0 | 2.0 | 0.00 | 0.04 | 0.00 | 93 | 1018.8 |
| 20260508060553 | 46 | 254 | 0.0 | 3.0 | 0.00 | 0.04 | 0.00 | 93 | 1018.8 |
| 20260508060052 | 45 | 254 | 0.0 | 1.0 | 0.00 | 0.07 | 0.00 | 93 | 1018.7 |
| 20260508055553 | 45 | 254 | 0.0 | 0.0 | 0.00 | 0.07 | 0.00 | 93 | 1018.8 |
| 20260508055050 | 45 | 254 | 0.0 | 2.0 | 0.00 | 0.07 | 0.00 | 93 | 1018.8 |
| 20260508054617 | 44 | 254 | 0.0 | 2.0 | 0.00 | 0.07 | 0.00 | 93 | 1018.7 |
| 20260508054053 | 44 | 254 | 0.0 | 2.0 | 0.00 | 0.07 | 0.00 | 92 | 1018.7 |
| 20260508053549 | 44 | 254 | 0.0 | 2.0 | 0.00 | 0.07 | 0.00 | 92 | 1018.7 |
| 20260508053049 | 44 | 254 | 0.0 | 2.0 | 0.00 | 0.07 | 0.00 | 92 | 1018.8 |
| 20260508052554 | 44 | 254 | 0.0 | 2.0 | 0.00 | 0.07 | 0.00 | 92 | 1018.7 |
| 20260508052049 | 44 | 253 | 0.0 | 2.0 | 0.00 | 0.07 | 0.00 | 92 | 1018.7 |
| 20260508051548 | 44 | 253 | 0.0 | 2.0 | 0.00 | 0.07 | 0.00 | 92 | 1018.7 |
| 20260508051048 | 43 | 253 | 0.0 | 2.0 | 0.00 | 0.07 | 0.00 | 92 | 1018.6 |
| 20260508050546 | 43 | 254 | 0.0 | 2.0 | 0.00 | 0.07 | 0.00 | 92 | 1018.6 |
| 20260508050046 | 43 | 254 | 0.0 | 2.0 | 0.00 | 0.07 | 0.00 | 92 | 1018.6 |
| 20260508045545 | 43 | 254 | 0.0 | 2.0 | 0.00 | 0.07 | 0.00 | 92 | 1018.6 |
| 20260508045045 | 43 | 252 | 0.0 | 2.0 | 0.00 | 0.07 | 0.00 | 92 | 1018.7 |
| 20260508044545 | 43 | 252 | 0.0 | 2.0 | 0.00 | 0.07 | 0.00 | 92 | 1018.7 |
| 20260508044045 | 43 | 252 | 0.0 | 2.0 | 0.00 | 0.07 | 0.00 | 92 | 1018.7 |
| 20260508043543 | 43 | 252 | 0.0 | 2.0 | 0.00 | 0.07 | 0.00 | 92 | 1018.7 |
| 20260508043048 | 43 | 252 | 0.0 | 2.0 | 0.00 | 0.07 | 0.00 | 92 | 1018.6 |
| 20260508042546 | 43 | 252 | 0.0 | 4.0 | 0.00 | 0.07 | 0.00 | 92 | 1018.6 |
| 20260508042041 | 43 | 252 | 0.0 | 4.0 | 0.00 | 0.07 | 0.00 | 92 | 1018.6 |
| 20260508041540 | 43 | 250 | 0.0 | 3.0 | 0.00 | 0.07 | 0.00 | 92 | 1018.5 |
| 20260508041043 | 43 | 250 | 0.0 | 3.0 | 0.00 | 0.07 | 0.00 | 92 | 1018.5 |
| 20260508040539 | 43 | 249 | 0.0 | 0.0 | 0.00 | 0.07 | 0.00 | 91 | 1018.5 |
| 20260508040048 | 43 | 247 | 0.0 | 0.0 | 0.00 | 0.08 | 0.00 | 91 | 1018.6 |
| 20260508035541 | 43 | 247 | 0.0 | 0.0 | 0.00 | 0.08 | 0.00 | 91 | 1018.4 |
| 20260508035038 | 43 | 247 | 0.0 | 0.0 | 0.00 | 0.08 | 0.00 | 91 | 1018.6 |
| 20260508034537 | 43 | 247 | 0.0 | 0.0 | 0.00 | 0.08 | 0.00 | 91 | 1018.7 |
| 20260508034038 | 43 | 247 | 0.0 | 0.0 | 0.00 | 0.08 | 0.00 | 91 | 1018.6 |
| 20260508033536 | 44 | 247 | 0.0 | 0.0 | 0.00 | 0.08 | 0.00 | 91 | 1018.6 |
| 20260508033036 | 44 | 247 | 0.0 | 0.0 | 0.00 | 0.08 | 0.00 | 91 | 1018.5 |
| 20260508032536 | 44 | 247 | 0.0 | 0.0 | 0.00 | 0.08 | 0.00 | 91 | 1018.5 |
| 20260508032036 | 44 | 247 | 0.0 | 0.0 | 0.00 | 0.08 | 0.00 | 91 | 1018.5 |
| 20260508031542 | 44 | 247 | 0.0 | 0.0 | 0.00 | 0.08 | 0.00 | 91 | 1018.5 |
| 20260508031035 | 44 | 247 | 0.0 | 0.0 | 0.00 | 0.08 | 0.00 | 91 | 1018.4 |
| 20260508030534 | 44 | 247 | 0.0 | 0.0 | 0.00 | 0.08 | 0.00 | 91 | 1018.4 |
| 20260508030034 | 44 | 247 | 0.0 | 1.0 | 0.00 | 0.10 | 0.00 | 91 | 1018.5 |
| 20260508025533 | 44 | 247 | 0.0 | 2.0 | 0.00 | 0.10 | 0.00 | 91 | 1018.5 |
| 20260508025036 | 44 | 247 | 0.0 | 3.0 | 0.00 | 0.10 | 0.00 | 91 | 1018.4 |
| 20260508024533 | 44 | 247 | 1.0 | 3.0 | 0.00 | 0.10 | 0.00 | 91 | 1018.5 |
| 20260508024032 | 44 | 246 | 0.0 | 2.0 | 0.00 | 0.10 | 0.00 | 90 | 1018.4 |
| 20260508023533 | 45 | 246 | 0.0 | 2.0 | 0.00 | 0.10 | 0.00 | 90 | 1018.4 |
| 20260508023031 | 45 | 246 | 0.0 | 0.0 | 0.00 | 0.10 | 0.00 | 90 | 1018.3 |
| 20260508022531 | 45 | 246 | 0.0 | 0.0 | 0.00 | 0.10 | 0.00 | 90 | 1018.3 |
| 20260508022031 | 45 | 246 | 0.0 | 0.0 | 0.00 | 0.10 | 0.00 | 90 | 1018.3 |
| 20260508021531 | 45 | 246 | 0.0 | 1.0 | 0.00 | 0.10 | 0.00 | 90 | 1018.3 |
| 20260508021035 | 45 | 246 | 0.0 | 1.0 | 0.00 | 0.10 | 0.00 | 90 | 1018.3 |
| 20260508020529 | 45 | 246 | 0.0 | 1.0 | 0.00 | 0.10 | 0.00 | 90 | 1018.3 |
| 20260508020029 | 45 | 246 | 0.0 | 0.0 | 0.00 | 0.15 | 0.00 | 90 | 1018.3 |
| 20260508015529 | 45 | 246 | 0.0 | 1.0 | 0.00 | 0.15 | 0.00 | 90 | 1018.3 |
| 20260508015029 | 45 | 246 | 0.0 | 2.0 | 0.00 | 0.15 | 0.00 | 90 | 1018.4 |
| 20260508014528 | 45 | 246 | 0.0 | 2.0 | 0.00 | 0.15 | 0.00 | 90 | 1018.3 |
| 20260508014026 | 46 | 246 | 0.0 | 0.0 | 0.00 | 0.15 | 0.00 | 90 | 1018.3 |
| 20260508013526 | 46 | 246 | 0.0 | 0.0 | 0.00 | 0.15 | 0.00 | 90 | 1018.3 |
| 20260508013027 | 46 | 246 | 0.0 | 0.0 | 0.00 | 0.15 | 0.00 | 90 | 1018.2 |
| 20260508012525 | 46 | 246 | 0.0 | 0.0 | 0.00 | 0.15 | 0.00 | 90 | 1018.1 |
| 20260508012025 | 46 | 246 | 0.0 | 1.0 | 0.00 | 0.15 | 0.00 | 90 | 1018.1 |
| 20260508011530 | 46 | 246 | 0.0 | 1.0 | 0.00 | 0.15 | 0.00 | 89 | 1018.1 |
| 20260508011025 | 46 | 246 | 0.0 | 1.0 | 0.00 | 0.15 | 0.00 | 90 | 1018.1 |
| 20260508010523 | 46 | 246 | 0.0 | 0.0 | 0.00 | 0.15 | 0.00 | 90 | 1018.1 |
| 20260508010028 | 46 | 246 | 0.0 | 1.0 | 0.00 | 0.19 | 0.00 | 89 | 1018.1 |
| 20260508005522 | 47 | 246 | 0.0 | 1.0 | 0.00 | 0.19 | 0.00 | 89 | 1018.1 |
| 20260508005022 | 47 | 246 | 0.0 | 1.0 | 0.00 | 0.19 | 0.00 | 89 | 1018.2 |
| 20260508004534 | 47 | 246 | 0.0 | 1.0 | 0.00 | 0.19 | 0.00 | 89 | 1018.2 |
| 20260508004021 | 47 | 246 | 0.0 | 1.0 | 0.00 | 0.19 | 0.00 | 89 | 1018.1 |
| 20260508003520 | 47 | 246 | 0.0 | 1.0 | 0.00 | 0.19 | 0.00 | 89 | 1018.0 |
| 20260508003020 | 47 | 246 | 0.0 | 0.0 | 0.00 | 0.19 | 0.00 | 89 | 1018.1 |
| 20260508002519 | 47 | 246 | 0.0 | 0.0 | 0.00 | 0.19 | 0.00 | 89 | 1018.1 |
| 20260508002020 | 48 | 246 | 0.0 | 0.0 | 0.00 | 0.19 | 0.00 | 89 | 1018.1 |
| 20260508001517 | 48 | 246 | 0.0 | 0.0 | 0.00 | 0.19 | 0.00 | 88 | 1018.1 |
| 20260508001017 | 48 | 246 | 0.0 | 0.0 | 0.00 | 0.19 | 0.00 | 89 | 1018.1 |
| 20260508000524 | 48 | 246 | 0.0 | 0.0 | 0.00 | 0.19 | 0.00 | 88 | 1018.2 |
| 20260508000018 | 48 | 246 | 0.0 | 2.0 | 0.00 | 0.21 | 0.00 | 88 | 1018.2 |
| 20260507235516 | 48 | 246 | 0.0 | 3.0 | 0.00 | 0.21 | 0.00 | 88 | 1018.2 |
| 20260507235016 | 48 | 246 | 0.0 | 2.0 | 0.00 | 0.21 | 0.00 | 88 | 1018.3 |
| 20260507234522 | 48 | 246 | 0.0 | 2.0 | 0.00 | 0.21 | 0.00 | 88 | 1018.3 |
| 20260507234014 | 48 | 246 | 0.0 | 2.0 | 0.00 | 0.21 | 0.00 | 88 | 1018.3 |
| 20260507233514 | 48 | 246 | 0.0 | 3.0 | 0.00 | 0.21 | 0.00 | 88 | 1018.4 |
| 20260507233023 | 49 | 246 | 0.0 | 1.0 | 0.00 | 0.21 | 0.00 | 88 | 1018.3 |
| 20260507232515 | 49 | 246 | 0.0 | 0.0 | 0.00 | 0.21 | 0.00 | 88 | 1018.3 |
| 20260507232013 | 49 | 246 | 0.0 | 0.0 | 0.00 | 0.21 | 0.00 | 87 | 1018.4 |
| 20260507231511 | 49 | 246 | 0.0 | 0.0 | 0.00 | 0.21 | 0.00 | 88 | 1018.4 |
| 20260507231011 | 49 | 246 | 0.0 | 0.0 | 0.00 | 0.21 | 0.00 | 88 | 1018.5 |
| 20260507230510 | 49 | 246 | 0.0 | 1.0 | 0.00 | 0.21 | 0.00 | 87 | 1018.6 |
| 20260507230009 | 49 | 246 | 0.0 | 0.0 | 0.00 | 0.21 | 0.00 | 87 | 1018.6 |
| 20260507225510 | 49 | 246 | 0.0 | 0.0 | 0.00 | 0.21 | 0.00 | 87 | 1018.5 |
| 20260507225009 | 49 | 246 | 0.0 | 0.0 | 0.00 | 0.21 | 0.00 | 87 | 1018.5 |
| 20260507224514 | 50 | 246 | 0.0 | 0.0 | 0.00 | 0.21 | 0.00 | 87 | 1018.6 |
| 20260507224007 | 50 | 246 | 0.0 | 0.0 | 0.00 | 0.21 | 0.00 | 87 | 1018.6 |
| 20260507223509 | 50 | 246 | 0.0 | 0.0 | 0.00 | 0.21 | 0.00 | 86 | 1018.7 |
| 20260507223011 | 50 | 246 | 0.0 | 0.0 | 0.00 | 0.21 | 0.00 | 87 | 1018.7 |
| 20260507222511 | 50 | 246 | 0.0 | 1.0 | 0.00 | 0.21 | 0.00 | 87 | 1018.7 |
| 20260507222005 | 50 | 246 | 0.0 | 1.0 | 0.00 | 0.21 | 0.00 | 87 | 1018.7 |
| 20260507221505 | 50 | 246 | 0.0 | 0.0 | 0.00 | 0.21 | 0.00 | 86 | 1018.7 |
| 20260507221005 | 50 | 246 | 0.0 | 1.0 | 0.00 | 0.21 | 0.00 | 86 | 1018.6 |
| 20260507220510 | 50 | 246 | 0.0 | 2.0 | 0.00 | 0.21 | 0.00 | 86 | 1018.6 |
| 20260507220005 | 50 | 246 | 0.0 | 2.0 | 0.00 | 0.21 | 0.21 | 86 | 1018.6 |
| 20260507215504 | 50 | 246 | 0.0 | 1.0 | 0.00 | 0.21 | 0.21 | 86 | 1018.6 |
| 20260507215002 | 50 | 246 | 0.0 | 1.0 | 0.00 | 0.21 | 0.21 | 86 | 1018.7 |
| 20260507214504 | 50 | 246 | 0.0 | 1.0 | 0.00 | 0.21 | 0.21 | 86 | 1018.6 |
| 20260507214002 | 50 | 246 | 0.0 | 1.0 | 0.00 | 0.21 | 0.21 | 85 | 1018.5 |
| 20260507213502 | 50 | 246 | 0.0 | 0.0 | 0.00 | 0.21 | 0.21 | 85 | 1018.4 |
| 20260507213001 | 51 | 246 | 0.0 | 0.0 | 0.00 | 0.21 | 0.21 | 85 | 1018.6 |
| 20260507212501 | 51 | 246 | 0.0 | 0.0 | 0.00 | 0.21 | 0.21 | 84 | 1018.5 |
| 20260507212002 | 51 | 246 | 0.0 | 0.0 | 0.00 | 0.21 | 0.21 | 84 | 1018.5 |
| 20260507211501 | 51 | 246 | 0.0 | 0.0 | 0.00 | 0.21 | 0.21 | 84 | 1018.5 |
| 20260507211004 | 51 | 246 | 0.0 | 0.0 | 0.00 | 0.21 | 0.21 | 83 | 1018.4 |
| 20260507210600 | 51 | 246 | 0.0 | 0.0 | 0.00 | 0.21 | 0.21 | 83 | 1018.4 |
| 20260507205600 | 52 | 246 | 0.0 | 0.0 | 0.00 | 0.21 | 0.21 | 82 | 1018.4 |
| 20260507205101 | 52 | 246 | 0.0 | 0.0 | 0.00 | 0.21 | 0.21 | 82 | 1018.5 |
| 20260507204559 | 52 | 246 | 0.0 | 0.0 | 0.00 | 0.21 | 0.21 | 81 | 1018.4 |
| 20260507204059 | 52 | 246 | 0.0 | 0.0 | 0.00 | 0.21 | 0.21 | 81 | 1018.4 |
| 20260507203601 | 53 | 246 | 0.0 | 0.0 | 0.00 | 0.21 | 0.21 | 81 | 1018.3 |
| 20260507203058 | 53 | 246 | 0.0 | 0.0 | 0.00 | 0.21 | 0.21 | 80 | 1018.2 |
| 20260507202601 | 53 | 246 | 0.0 | 0.0 | 0.00 | 0.21 | 0.21 | 80 | 1018.2 |
| 20260507202102 | 53 | 246 | 0.0 | 1.0 | 0.00 | 0.21 | 0.21 | 79 | 1018.2 |
| 20260507201558 | 54 | 246 | 0.0 | 1.0 | 0.00 | 0.21 | 0.21 | 79 | 1018.1 |
| 20260507201057 | 54 | 246 | 0.0 | 1.0 | 0.00 | 0.21 | 0.21 | 78 | 1018.1 |
| 20260507200557 | 54 | 246 | 0.0 | 2.0 | 0.00 | 0.21 | 0.21 | 78 | 1018.1 |
| 20260507200058 | 55 | 246 | 0.0 | 1.0 | 0.00 | 0.21 | 0.21 | 77 | 1018.0 |
| 20260507195557 | 55 | 246 | 0.0 | 0.0 | 0.00 | 0.21 | 0.21 | 76 | 1018.0 |
| 20260507195056 | 55 | 246 | 0.0 | 0.0 | 0.00 | 0.21 | 0.21 | 76 | 1017.9 |
| 20260507194556 | 56 | 246 | 0.0 | 0.0 | 0.00 | 0.21 | 0.21 | 75 | 1017.8 |
| 20260507194056 | 56 | 246 | 0.0 | 0.0 | 0.00 | 0.21 | 0.21 | 75 | 1017.9 |
| 20260507193556 | 56 | 246 | 0.0 | 0.0 | 0.00 | 0.21 | 0.21 | 75 | 1017.8 |
| 20260507193100 | 56 | 246 | 0.0 | 3.0 | 0.00 | 0.21 | 0.21 | 74 | 1017.7 |
| 20260507192555 | 56 | 246 | 0.0 | 3.0 | 0.00 | 0.21 | 0.21 | 73 | 1017.6 |
| 20260507192055 | 57 | 243 | 0.0 | 2.0 | 0.00 | 0.21 | 0.21 | 73 | 1017.6 |
| 20260507191558 | 57 | 243 | 0.0 | 2.0 | 0.00 | 0.21 | 0.21 | 72 | 1017.5 |
| 20260507191056 | 57 | 225 | 0.0 | 1.0 | 0.00 | 0.21 | 0.21 | 72 | 1017.5 |
| 20260507190555 | 57 | 225 | 0.0 | 1.0 | 0.00 | 0.21 | 0.21 | 72 | 1017.5 |
| 20260507190055 | 57 | 225 | 0.0 | 2.0 | 0.00 | 0.22 | 0.21 | 71 | 1017.4 |
| 20260507185554 | 58 | 225 | 0.0 | 2.0 | 0.00 | 0.22 | 0.21 | 71 | 1017.4 |
| 20260507185054 | 58 | 290 | 0.0 | 2.0 | 0.00 | 0.22 | 0.21 | 70 | 1017.3 |
| 20260507184554 | 58 | 290 | 0.0 | 2.0 | 0.00 | 0.22 | 0.21 | 70 | 1017.3 |
| 20260507184155 | 58 | 311 | 0.0 | 4.0 | 0.00 | 0.22 | 0.21 | 70 | 1017.3 |
| 20260507183557 | 59 | 303 | 1.0 | 4.0 | 0.00 | 0.22 | 0.21 | 69 | 1017.3 |
| 20260507183054 | 59 | 223 | 0.0 | 1.0 | 0.00 | 0.22 | 0.21 | 68 | 1017.2 |
| 20260507182554 | 59 | 223 | 0.0 | 0.0 | 0.00 | 0.22 | 0.21 | 67 | 1017.2 |
| 20260507182054 | 60 | 223 | 0.0 | 1.0 | 0.00 | 0.22 | 0.21 | 67 | 1017.2 |
| 20260507181554 | 60 | 223 | 0.0 | 2.0 | 0.00 | 0.22 | 0.21 | 66 | 1017.3 |
| 20260507181054 | 60 | 223 | 0.0 | 2.0 | 0.00 | 0.22 | 0.21 | 66 | 1017.2 |
| 20260507180555 | 60 | 223 | 0.0 | 1.0 | 0.00 | 0.22 | 0.21 | 65 | 1017.2 |
| 20260507180059 | 60 | 222 | 0.0 | 2.0 | 0.00 | 0.24 | 0.21 | 65 | 1017.1 |
| 20260507175554 | 60 | 221 | 0.0 | 2.0 | 0.00 | 0.24 | 0.21 | 64 | 1017.1 |
| 20260507175053 | 61 | 220 | 0.0 | 2.0 | 0.00 | 0.24 | 0.21 | 64 | 1017.1 |
| 20260507174622 | 61 | 222 | 0.0 | 2.0 | 0.00 | 0.24 | 0.21 | 63 | 1017.1 |
| 20260507174052 | 61 | 243 | 0.0 | 2.0 | 0.00 | 0.24 | 0.21 | 62 | 1017.0 |
| 20260507173552 | 61 | 242 | 0.0 | 2.0 | 0.00 | 0.24 | 0.21 | 61 | 1017.0 |
| 20260507173052 | 61 | 242 | 0.0 | 5.0 | 0.00 | 0.24 | 0.21 | 60 | 1017.0 |
| 20260507172554 | 61 | 333 | 0.0 | 5.0 | 0.00 | 0.24 | 0.21 | 59 | 1016.9 |
| 20260507172052 | 62 | 177 | 0.0 | 5.0 | 0.00 | 0.24 | 0.21 | 59 | 1016.9 |
| 20260507171605 | 62 | 177 | 1.0 | 5.0 | 0.00 | 0.24 | 0.21 | 59 | 1017.0 |
| 20260507171052 | 62 | 177 | 0.0 | 3.0 | 0.00 | 0.24 | 0.21 | 58 | 1017.0 |
| 20260507170553 | 62 | 177 | 1.0 | 4.0 | 0.00 | 0.24 | 0.21 | 58 | 1017.0 |
| 20260507170052 | 62 | 177 | 1.0 | 4.0 | 0.00 | 0.27 | 0.21 | 58 | 1016.9 |
| 20260507165555 | 62 | 165 | 0.0 | 5.0 | 0.00 | 0.27 | 0.21 | 58 | 1016.9 |
| 20260507165051 | 62 | 215 | 0.0 | 4.0 | 0.00 | 0.27 | 0.21 | 59 | 1016.9 |
| 20260507164554 | 62 | 221 | 1.0 | 5.0 | 0.00 | 0.27 | 0.21 | 59 | 1016.9 |
| 20260507164051 | 63 | 223 | 0.0 | 5.0 | 0.00 | 0.27 | 0.21 | 58 | 1017.0 |
| 20260507163551 | 63 | 335 | 1.0 | 5.0 | 0.00 | 0.27 | 0.21 | 58 | 1016.9 |
| 20260507163050 | 63 | 323 | 1.0 | 5.0 | 0.00 | 0.27 | 0.21 | 59 | 1016.8 |
| 20260507162551 | 62 | 227 | 1.0 | 4.0 | 0.00 | 0.27 | 0.21 | 59 | 1016.8 |
| 20260507162054 | 62 | 336 | 2.0 | 6.0 | 0.00 | 0.27 | 0.21 | 59 | 1016.9 |
| 20260507161553 | 62 | 319 | 3.0 | 6.0 | 0.00 | 0.27 | 0.21 | 61 | 1016.9 |
| 20260507161054 | 62 | 219 | 1.0 | 4.0 | 0.00 | 0.27 | 0.21 | 61 | 1016.8 |
| 20260507160550 | 62 | 211 | 2.0 | 6.0 | 0.00 | 0.27 | 0.21 | 61 | 1017.0 |
| 20260507160111 | 62 | 228 | 0.0 | 6.0 | 0.00 | 0.28 | 0.21 | 61 | 1016.9 |
| 20260507155553 | 62 | 24 | 0.0 | 5.0 | 0.00 | 0.28 | 0.21 | 62 | 1016.9 |
| 20260507155052 | 62 | 327 | 2.0 | 5.0 | 0.00 | 0.28 | 0.21 | 61 | 1016.9 |
| 20260507154549 | 63 | 263 | 2.0 | 6.0 | 0.00 | 0.28 | 0.21 | 60 | 1016.9 |
| 20260507154049 | 63 | 190 | 2.0 | 8.0 | 0.00 | 0.28 | 0.21 | 60 | 1016.9 |